Location: Boiro
(42.6475°N, 8.8834°W)
Time: 02:04:02
(UTC+01:00)

Transit 2A Rocket - Pass Details

Date: 02 December 2021
Orbit: 584 x 917 km, 66.7° (Epoch: 23 January)

Event Time Altitude Azimuth Distance (km) Brightness Sun altitude
Rises 17:25:57 0° 333° (NNW) 3,564 8.4 4.8°
Reaches altitude 10° 17:28:43 10° 341° (NNW) 2,610 7.6 4.4°
Maximum altitude 17:34:22 38° 49° (NE) 1,338 5.9 3.6°
Drops below altitude 10° 17:39:44 10° 116° (ESE) 2,480 7.4 2.8°
Sets 17:42:18 0° 125° (SE) 3,366 8.1 2.4°
